KF6ILA Weather Reports


Display with metric or nautical units.
time (UTC)temp
F
wind
direction
speed
MPH
gust
MPH
rain 1hr
in
rain 24hr
in
rain mn
in
humidity
%
barometer
mb
20260904040306 61 249 12.0 18.0 0.00 0.00 0.00 42 1013.4
20260904035312 61 249 12.0 17.0 0.00 0.00 0.00 47 1013.2
20260904034815 61 252 13.0 17.0 0.00 0.00 0.00 52 1013.1
20260904034318 60 248 12.0 18.0 0.00 0.00 0.00 60 1013.0
20260904033821 60 246 13.0 19.0 0.00 0.00 0.00 65 1013.1
20260904033324 60 246 12.0 19.0 0.00 0.00 0.00 69 1012.9
20260904032827 59 246 12.0 17.0 0.00 0.00 0.00 72 1013.0
20260904032330 59 247 11.0 19.0 0.00 0.00 0.00 74 1012.9
20260904031336 59 250 13.0 18.0 0.00 0.00 0.00 79 1012.6
20260904030839 58 254 13.0 17.0 0.00 0.00 0.00 80 1012.6
20260904025348 58 251 12.0 18.0 0.00 0.00 0.00 82 1012.5
20260904024851 58 252 12.0 18.0 0.00 0.00 0.00 82 1012.6
20260904024354 59 253 13.0 18.0 0.00 0.00 0.00 81 1012.5
20260904022406 60 258 16.0 19.0 0.00 0.00 0.00 79 1012.5
20260904021909 60 260 14.0 19.0 0.00 0.00 0.00 78 1012.4
20260904021412 60 249 12.0 19.0 0.00 0.00 0.00 77 1012.6
20260904020915 61 256 14.0 20.0 0.00 0.00 0.00 76 1012.6
20260904020418 61 258 15.0 20.0 0.00 0.00 0.00 75 1012.5
20260904015921 61 255 12.0 21.0 0.00 0.00 0.00 74 1012.6
20260904015424 62 259 16.0 21.0 0.00 0.00 0.00 73 1012.7
20260904014927 63 259 14.0 20.0 0.00 0.00 0.00 71 1012.7
20260904013933 64 260 14.0 22.0 0.00 0.00 0.00 68 1012.7
20260904012939 65 264 15.0 22.0 0.00 0.00 0.00 66 1012.8
20260904012442 65 260 15.0 22.0 0.00 0.00 0.00 65 1012.7
20260904011945 65 263 17.0 22.0 0.00 0.00 0.00 63 1012.8
20260904011448 66 259 17.0 23.0 0.00 0.00 0.00 62 1012.9
20260904010951 66 255 15.0 23.0 0.00 0.00 0.00 61 1012.9
20260904010454 67 261 17.0 23.0 0.00 0.00 0.00 60 1012.8
20260904005957 67 254 16.0 24.0 0.00 0.00 0.00 59 1012.9
20260904003512 69 250 14.0 22.0 0.00 0.00 0.00 55 1012.9
20260904002518 69 256 17.0 24.0 0.00 0.00 0.00 54 1012.9
20260904002021 69 257 18.0 24.0 0.00 0.00 0.00 54 1012.8
20260904001524 69 253 18.0 24.0 0.00 0.00 0.00 53 1012.9
20260904001027 70 251 15.0 23.0 0.00 0.00 0.00 52 1012.8
20260904000530 70 261 16.0 24.0 0.00 0.00 0.00 52
20260903235536 71 252 14.0 23.0 0.00 0.00 0.00 52 1012.8
20260903235039 72 267 15.0 24.0 0.00 0.00 0.00 51 1012.7
20260903234542 72 252 14.0 24.0 0.00 0.00 0.00 51 1012.6
20260903233548 71 247 17.0 24.0 0.00 0.00 0.00 52 1012.9
20260903232553 72 255 19.0 24.0 0.00 0.00 0.00 51 1013.0
20260903232057 72 255 15.0 24.0 0.00 0.00 0.00 49 1013.0
20260903231600 72 252 17.0 25.0 0.00 0.00 0.00 50 1013.0
20260903230606 72 255 17.0 25.0 0.00 0.00 0.00 49 1013.2
20260903230109 72 280 14.0 26.0 0.00 0.00 0.00 52 1013.1
20260903225612 0 258 20.0 26.0 0.00 0.00 0.00
20260903225115 73 261 18.0 25.0 0.00 0.00 0.00 50 1013.2
20260903224120 74 286 15.0 21.0 0.00 0.00 0.00 49 1013.3
20260903223624 74 284 15.0 21.0 0.00 0.00 0.00 48 1013.5
20260903223126 74 257 14.0 26.0 0.00 0.00 0.00 47 1013.8
20260903222630 74 262 17.0 26.0 0.00 0.00 0.00 46 1013.6
20260903222133 74 253 14.0 24.0 0.00 0.00 0.00 46 1013.9
20260903221636 75 245 15.0 23.0 0.00 0.00 0.00 43 1013.8
20260903214654 76 257 14.0 22.0 0.00 0.00 0.00 35 1014.1
20260903214157 75 261 12.0 24.0 0.00 0.00 0.00 34 1014.2
20260903213700 75 238 16.0 24.0 0.00 0.00 0.00 33 1014.3
20260903213203 75 252 13.0 23.0 0.00 0.00 0.00 32 1014.1
20260903212706 76 265 13.0 23.0 0.00 0.00 0.00 33 1014.3
20260903211712 76 258 15.0 24.0 0.00 0.00 0.00 32 1014.3
20260903211215 76 255 11.0 26.0 0.00 0.00 0.00 30 1014.2
20260903204730 75 261 9.0 24.0 0.00 0.00 0.00 30 1014.3
20260903203239 75 237 14.0 24.0 0.00 0.00 0.00 29 1014.6
20260903202742 75 264 16.0 23.0 0.00 0.00 0.00 29 1014.6
20260903201335 75 245 13.0 22.0 0.00 0.00 0.00 29 1014.6
20260903201251 75 245 13.0 22.0 0.00 0.00 0.00 29 1014.6
20260903200257 74 277 10.0 24.0 0.00 0.00 0.00 29 1014.6
20260903195800 74 250 15.0 24.0 0.00 0.00 0.00 29 1014.8
20260903195306 74 259 14.0 24.0 0.00 0.00 0.00 29 1015.0
20260903194806 74 263 18.0 24.0 0.00 0.00 0.00 28 1014.9
20260903194309 74 272 13.0 24.0 0.00 0.00 0.00 27 1014.8
20260903193812 74 288 13.0 23.0 0.00 0.00 0.00 27 1014.8
20260903193315 74 255 13.0 24.0 0.00 0.00 0.00 27 1014.8
20260903192818 74 254 18.0 24.0 0.00 0.00 0.00 27 1015.1
20260903192321 74 270 13.0 25.0 0.00 0.00 0.00 27 1014.9
20260903191824 74 239 11.0 25.0 0.00 0.00 0.00 26 1015.2
20260903190830 74 236 15.0 22.0 0.00 0.00 0.00 23 1015.3
20260903185836 74 244 16.0 23.0 0.00 0.00 0.00
20260903185339 74 253 13.0 21.0 0.00 0.00 0.00 24 1015.4
20260903184842 73 250 13.0 23.0 0.00 0.00 0.00 24 1015.4
20260903184345 73 237 15.0 23.0 0.00 0.00 0.00 24 1015.5
20260903183848 73 248 14.0 23.0 0.00 0.00 0.00 26 1015.4
20260903183351 73 277 13.0 22.0 0.00 0.00 0.00 26 1015.5
20260903182854 73 271 12.0 22.0 0.00 0.00 0.00 25 1015.7
20260903181900 73 274 14.0 22.0 0.00 0.00 0.00 26 1015.5
20260903180906 73 250 14.0 21.0 0.00 0.00 0.00 25 1015.8
20260903175415 72 254 9.0 20.0 0.00 0.00 0.00 27 1015.9
20260903174917 72 255 12.0 20.0 0.00 0.00 0.00 26 1015.8
20260903173427 71 229 11.0 20.0 0.00 0.00 0.00 27 1015.8
20260903172930 71 259 13.0 20.0 0.00 0.00 0.00 27 1015.8
20260903171936 69 255 13.0 23.0 0.00 0.00 0.00 29 1015.8
20260903171439 69 254 15.0 23.0 0.00 0.00 0.00 28 1015.7
20260903170942 69 265 12.0 23.0 0.00 0.00 0.00 29 1015.7
20260903165947 68 265 16.0 22.0 0.00 0.00 0.00 28 1015.7
20260903165451 68 253 13.0 21.0 0.00 0.00 0.00 30 1015.7
20260903164954 67 251 14.0 22.0 0.00 0.00 0.00 30 1015.7
20260903164457 67 245 14.0 23.0 0.00 0.00 0.00 30 1015.7
20260903163502 67 252 15.0 24.0 0.00 0.00 0.00 31 1015.6
20260903163006 66 253 14.0 20.0 0.00 0.00 0.00 31 1015.5
20260903162508 66 259 13.0 24.0 0.00 0.00 0.00 32 1015.5
20260903161514 66 272 14.0 21.0 0.00 0.00 0.00 31 1015.5
20260903155030 65 250 13.0 22.0 0.00 0.00 0.00 30 1015.3
20260903154533 65 254 13.0 22.0 0.00 0.00 0.00 30 1015.3
20260903154036 65 243 12.0 19.0 0.00 0.00 0.00 30 1015.4
20260903153539 64 258 13.0 21.0 0.00 0.00 0.00 30 1015.3
20260903153042 64 249 10.0 21.0 0.00 0.00 0.00 30 1015.3
20260903152734 64 261 13.0 22.0 0.00 0.00 0.00 30 1015.3
20260903152544 64 261 13.0 22.0 0.00 0.00 0.00 30 1015.3
20260903152048 64 250 14.0 22.0 0.00 0.00 0.00 30 1015.4
20260903151054 63 252 15.0 21.0 0.00 0.00 0.00 29 1014.5
20260903150557 63 252 13.0 21.0 0.00 0.00 0.00 28 1014.5
20260903150100 63 249 13.0 21.0 0.00 0.00 0.00 28 1014.5
20260903145106 62 248 12.0 21.0 0.00 0.00 0.00 24 1014.4
20260903144608 62 256 14.0 21.0 0.00 0.00 0.00 22 1014.4
20260903144112 62 246 16.0 21.0 0.00 0.00 0.00 22 1014.4
20260903143614 61 242 15.0 20.0 0.00 0.00 0.00 22 1014.3
20260903143117 61 246 13.0 22.0 0.00 0.00 0.00 21 1014.3
20260903142620 61 251 13.0 22.0 0.00 0.00 0.00 23 1014.1
20260903142123 61 248 15.0 23.0 0.00 0.00 0.00 21 1014.1
20260903141628 61 250 15.0 23.0 0.00 0.00 0.00 20 1014.0
20260903141129 61 250 16.0 23.0 0.00 0.00 0.00 18 1014.0
20260903140632 61 254 15.0 23.0 0.00 0.00 0.00 17 1013.9
20260903140135 61 252 16.0 23.0 0.00 0.00 0.00 18 1013.8
20260903135638 60 256 13.0 21.0 0.00 0.00 0.00 18 1013.7
20260903135141 60 263 15.0 21.0 0.00 0.00 0.00 18 1013.6
20260903134644 60 263 14.0 22.0 0.00 0.00 0.00 17 1013.5
20260903133650 60 259 16.0 23.0 0.00 0.00 0.00 17 1013.6
20260903132657 60 257 16.0 24.0 0.00 0.00 0.00 16 1013.6
20260903132159 60 259 16.0 24.0 0.00 0.00 0.00 16 1013.6
20260903131702 60 262 15.0 24.0 0.00 0.00 0.00 17 1013.5
20260903130708 60 261 15.0 20.0 0.00 0.00 0.00 17 1013.5
20260903130211 59 257 15.0 20.0 0.00 0.00 0.00 17 1013.5
20260903125714 59 255 14.0 23.0 0.00 0.00 0.00 16 1013.5
20260903125217 59 253 16.0 23.0 0.00 0.00 0.00 14 1013.5
20260903124720 60 254 16.0 22.0 0.00 0.00 0.00 14 1013.6
20260903124224 60 254 15.0 25.0 0.00 0.00 0.00 15 1013.6
20260903123726 60 256 17.0 25.0 0.00 0.00 0.00 15 1013.4
20260903123229 60 262 14.0 22.0 0.00 0.00 0.00 14 1013.3
20260903122732 59 258 15.0 22.0 0.00 0.00 0.00 13 1013.4
20260903122235 59 255 13.0 22.0 0.00 0.00 0.00 12 1013.3
20260903121738 60 253 14.0 22.0 0.00 0.00 0.00 12 1013.4
20260903121241 60 257 15.0 23.0 0.00 0.00 0.00 13 1013.4
20260903120744 60 257 16.0 23.0 0.00 0.00 0.00 14 1013.3
20260903120247 59 255 16.0 23.0 0.00 0.00 0.00 15 1013.4
20260903115750 59 259 14.0 22.0 0.00 0.00 0.00 13 1013.3
20260903115253 59 259 15.0 22.0 0.00 0.00 0.00 13 1013.5
20260903114756 59 255 13.0 22.0 0.00 0.00 0.00 12 1013.6
20260903114259 59 255 14.0 22.0 0.00 0.00 0.00 11 1013.6
20260903113803 59 250 15.0 22.0 0.00 0.00 0.00 11 1013.6
20260903113305 59 248 15.0 22.0 0.00 0.00 0.00 10 1013.6
20260903112809 59 249 16.0 24.0 0.00 0.00 0.00 10 1013.6
20260903112311 59 246 15.0 24.0 0.00 0.00 0.00 11 1013.6
20260903111814 59 246 15.0 24.0 0.00 0.00 0.00 10 1013.6
20260903111317 59 250 15.0 24.0 0.00 0.00 0.00 10 1013.6
20260903110820 59 248 17.0 23.0 0.00 0.00 0.00 10 1013.7
20260903110323 59 246 18.0 23.0 0.00 0.00 0.00 10 1013.8
20260903105826 59 245 18.0 23.0 0.00 0.00 0.00 10 1013.8
20260903105329 59 244 18.0 24.0 0.00 0.00 0.00 10 1013.9
20260903104832 59 245 17.0 24.0 0.00 0.00 0.00 10 1013.7
20260903104335 59 245 19.0 24.0 0.00 0.00 0.00 10 1013.9
20260903103838 59 246 17.0 23.0 0.00 0.00 0.00 10 1013.9
20260903103341 59 246 17.0 22.0 0.00 0.00 0.00 10 1013.9
20260903102844 59 247 17.0 24.0 0.00 0.00 0.00 10 1013.9
20260903102347 59 247 17.0 24.0 0.00 0.00 0.00 10 1013.8
20260903101850 59 249 17.0 22.0 0.00 0.00 0.00 10 1013.9
20260903101353 59 248 16.0 22.0 0.00 0.00 0.00 10 1014.0
20260903100856 59 253 15.0 24.0 0.00 0.00 0.00 10 1014.1
20260903100359 60 251 17.0 24.0 0.00 0.00 0.00 10 1014.0
20260903095902 60 252 16.0 25.0 0.00 0.00 0.00 10 1014.0
20260903095405 60 256 19.0 25.0 0.00 0.00 0.00 10 1013.9
20260903094908 60 249 17.0 26.0 0.00 0.00 0.00 10 1014.0
20260903094411 60 258 18.0 27.0 0.00 0.00 0.00 10 1014.0
20260903093915 60 255 19.0 27.0 0.00 0.00 0.00 10 1013.9
20260903093417 60 260 20.0 28.0 0.00 0.00 0.00 10 1013.9
20260903092920 60 258 20.0 28.0 0.00 0.00 0.00 10 1014.0
20260903092423 60 255 20.0 28.0 0.00 0.00 0.00 10 1013.9
20260903091927 61 258 19.0 28.0 0.00 0.00 0.00 10 1013.8
20260903091429 61 256 19.0 28.0 0.00 0.00 0.00 10 1013.6
20260903090933 61 259 20.0 29.0 0.00 0.00 0.00 10 1013.6
20260903090435 61 257 21.0 29.0 0.00 0.00 0.00 10 1013.6
20260903085939 61 257 22.0 32.0 0.00 0.00 0.00 11 1013.6
20260903085442 61 259 22.0 32.0 0.00 0.00 0.00 11 1013.6
20260903084944 61 258 22.0 31.0 0.00 0.00 0.00 12 1014.5
20260903084447 61 260 21.0 32.0 0.00 0.00 0.00 12 1014.5
20260903083951 61 251 21.0 32.0 0.00 0.00 0.00 12 1014.5
20260903083454 61 255 23.0 32.0 0.00 0.00 0.00 13 1014.8
20260903082957 61 253 23.0 32.0 0.00 0.00 0.00 14 1014.7
20260903082459 60 255 24.0 31.0 0.00 0.00 0.00 15 1014.9
20260903082002 60 255 24.0 31.0 0.00 0.00 0.00 16 1014.9
20260903081009 60 256 20.0 29.0 0.00 0.00 0.00 19 1014.9
20260903080512 59 255 21.0 29.0 0.00 0.00 0.00 20 1015.0
20260903080014 59 253 23.0 31.0 0.00 0.00 0.00 24 1015.1
20260903075517 59 247 21.0 31.0 0.00 0.00 0.00 29 1015.2
20260903075021 58 243 21.0 27.0 0.00 0.00 0.00 34 1015.2
20260903074523 58 244 20.0 27.0 0.00 0.00 0.00 38 1015.2
20260903074027 58 244 21.0 27.0 0.00 0.00 0.00 41 1015.3
20260903073529 58 247 20.0 24.0 0.00 0.00 0.00 47 1015.3
20260903073032 57 253 18.0 24.0 0.00 0.00 0.00 49 1015.4
20260903072536 57 245 17.0 24.0 0.00 0.00 0.00 49 1015.4
20260903072039 57 249 18.0 24.0 0.00 0.00 0.00 51 1015.5
20260903071541 57 247 17.0 22.0 0.00 0.00 0.00 53 1015.5
20260903071045 58 250 13.0 22.0 0.00 0.00 0.00 51 1015.5
20260903070547 58 251 14.0 22.0 0.00 0.00 0.00 48 1015.5
20260903070050 59 257 14.0 22.0 0.00 0.00 0.00 44 1015.5
20260903065553 59 262 15.0 22.0 0.00 0.00 0.00 40 1015.6
20260903065057 59 265 14.0 21.0 0.00 0.00 0.00 37 1015.6
20260903064600 60 261 13.0 22.0 0.00 0.00 0.00 34 1015.6
20260903064103 60 264 15.0 22.0 0.00 0.00 0.00 33 1015.5
20260903063605 60 268 13.0 24.0 0.00 0.00 0.00 34 1015.5
20260903063108 61 267 16.0 24.0 0.00 0.00 0.00 30 1015.5
20260903062611 61 259 17.0 24.0 0.00 0.00 0.00 30 1015.5
20260903062114 61 260 18.0 26.0 0.00 0.00 0.00 28 1015.4
20260903061617 61 263 16.0 26.0 0.00 0.00 0.00 29 1015.3
20260903061121 61 261 16.0 24.0 0.00 0.00 0.00 28 1015.3
20260903060624 61 267 16.0 24.0 0.00 0.00 0.00 29 1015.4
20260903060127 61 269 15.0 24.0 0.00 0.00 0.00 30 1015.5
20260903055630 61 264 16.0 24.0 0.00 0.00 0.00 30 1015.4
20260903055133 61 266 16.0 24.0 0.00 0.00 0.00 30 1015.4
20260903054636 61 262 19.0 26.0 0.00 0.00 0.00 28 1015.4
20260903054139 62 262 16.0 27.0 0.00 0.00 0.00 28 1015.5
20260903053641 62 260 18.0 29.0 0.00 0.00 0.00 27 1015.6
20260903053145 62 261 17.0 29.0 0.00 0.00 0.00 27 1015.5
20260903052648 62 253 21.0 27.0 0.00 0.00 0.00 27 1015.5
20260903052151 62 259 19.0 27.0 0.00 0.00 0.00 26 1015.5
20260903051157 63 257 18.0 28.0 0.00 0.00 0.00 23 1015.4
20260903050700 63 256 20.0 28.0 0.00 0.00 0.00 22 1015.5
20260903045706 63 258 22.0 28.0 0.00 0.00 0.00 21 1015.4
20260903045209 63 258 20.0 28.0 0.00 0.00 0.00 21 1015.5
20260903044712 62 251 18.0 28.0 0.00 0.00 0.00 22 1015.5
20260903044215 62 252 19.0 27.0 0.00 0.00 0.00 24 1015.4
20260903043718 62 245 21.0 27.0 0.00 0.00 0.00 25 1015.5
20260903043221 62 252 20.0 29.0 0.00 0.00 0.00 25 1015.4
20260903041730 62 250 17.0 26.0 0.00 0.00 0.00 30 1015.4